Regional Weather Roundup
Issued by NWS

Home | Current Version | Previous Version | Text Only | Print | Product List | Glossary On
Versions: 1 2 3 4 5 6 7 8 9 10 11 12 13 14 15 16 17 18 19 20 21 22 23 24 25 26 27 28 29 30 31 32 33 34 35 36 37 38 39 40 41 42 43 44 45 46 47 48 49 50
000
ASUS43 KLSX 180507
RWRMO

WEATHER SUMMARY FOR MISSOURI
NATIONAL WEATHER SERVICE SPRINGFIELD MO
1100 PM CST WED DEC 17 2014

NOTE: "FAIR" INDICATES FEW OR NO CLOUDS BELOW 12,000 FEET WITH NO
       SIGNIFICANT WEATHER AND/OR OBSTRUCTIONS TO VISIBILITY.
       CURRENT SKY AND/OR WEATHER CONDITIONS ARE NOT AVAILABLE FOR
       CHILLICOTHE AND FARMINGTON.

MOZ001>031-035>038-043-044-053-054-180600-
...NORTHERN AND WESTERN MISSOURI...

CITY           SKY/WX    TMP DP  RH WIND       PRES   REMARKS
KANSAS CTY INT CLOUDY    29  22  75 E7        30.25R WCI  22
KANSAS C DTWN  CLOUDY    31  22  69 E6        30.26R WCI  25
LEE`S SUMMIT   CLOUDY    30  23  75 CALM      30.26R
ST JOSEPH      CLOUDY    30  22  72 E5        30.27F WCI  25
CHILLICOTHE      N/A     30  22  72 NE6       30.28F WCI  24
KIRKSVILLE     CLOUDY    27  22  81 E3        30.29F

$$
MOZ066>068-077>081-088>096-101>105-180600-
...SOUTHWEST MISSOURI...

CITY           SKY/WX    TMP DP  RH WIND       PRES   REMARKS
SPRINGFIELD    CLOUDY    34  32  92 SE9       30.19F WCI  27
JOPLIN         CLOUDY    34  32  92 E3        30.21S

$$
MOZ032>034-039>042-045>050-055>058-069>072-180600-
...CENTRAL MISSOURI...

CITY           SKY/WX    TMP DP  RH WIND       PRES   REMARKS
COLUMBIA       CLOUDY    31  26  82 E5        30.28R WCI  26
JEFFERSON CITY CLOUDY    34  25  69 E3        30.29R
ROLLA          CLOUDY    33  25  72 S6        30.24S WCI  28
SEDALIA        CLOUDY    33  25  72 E6        30.26S WCI  28
WHITEMAN AFB   FLURRIES  32  25  74 NE5       30.25F WCI  27
WARRENSBURG    CLOUDY    32  27  80 NE3       30.26S
OSAGE BEACH    CLOUDY    30  27  86 E3        30.26S

$$
MOZ051-052-059>065-180600-
...EAST CENTRAL MISSOURI...

CITY           SKY/WX    TMP DP  RH WIND       PRES   REMARKS
ST LOUIS INTL  CLOUDY    31  23  72 NE6       30.30F WCI  25
SPIRIT OF STL  CLOUDY   N/A N/A N/A NE7       30.30S
ST CHARLES     CLOUDY    29  23  78 E6        30.31F WCI  23

$$
MOZ072>076-082>087-097>100-106>115-180600-
...SOUTH CENTRAL AND SOUTHEAST MISSOURI...

CITY           SKY/WX    TMP DP  RH WIND       PRES   REMARKS
CAPE GIRARDEAU CLOUDY    38  28  67 CALM      30.31R
FARMINGTON     CLOUDY    36  28  75 CALM      30.28S
POPLAR BLUFF   LGT RAIN  34  30  85 CALM      30.32R FOG
WEST PLAINS    LGT SNOW  33  30  88 E3        30.25S FOG

$$



USA.gov is the U.S. government's official web portal to all federal, state and local government web resources and services.